Tracking 29892 objects as of 21-Nov-2024
HD Live streaming from Space Station
objects crossing your sky now

ARIANE 5 R/B

Track ARIANE 5 R/B now!


NORAD ID: 37777
Int'l Code: 2011-041C
Perigee: 249.0 km
Apogee: 32,870.6 km
Inclination: 1.5 °
Period: 576.0 minutes
Semi major axis: 22930 km
RCS: 25.2542 m2 (large)
Launch date: August 6, 2011
Source: France (FR)
Launch site: FRENCH GUIANA (FRGUI)

Note: This is a ROCKET BODY
Your satellite tracking list
Your tracking list is empty




NASA's NSSDC Master Catalog

Two Line Element Set (TLE):
1 37777U 11041C   24325.76828610  .00011160  00000-0  23135-2 0  9997
2 37777   1.5460 152.0126 7113041 113.7709 332.9413  2.50019064116281
Source of the keplerian elements: AFSPC